�������l�o���
Date,Time,MP-1(��Sv/h),MP-2(��Sv/h),MP-3(��Sv/h),MP-4(��Sv/h),MP-5(��Sv/h),MP-6(��Sv/h),MP-7(��Sv/h),MP-8(��Sv/h),����,����(m/s),���J
2023/07/24,00:00,0.525,0.805,0.490,0.963,0.713,0.321,0.566,0.534,��,5.4,��
2023/07/24,00:10,0.526,0.805,0.492,0.960,0.712,0.325,0.568,0.534,��,5.9,��
2023/07/24,00:20,0.525,0.803,0.492,0.960,0.714,0.323,0.567,0.532,��,6.2,��
2023/07/24,00:30,0.526,0.805,0.493,0.961,0.713,0.322,0.567,0.533,��,5.8,��
2023/07/24,00:40,0.525,0.803,0.493,0.962,0.713,0.323,0.566,0.533,��,4.7,��
2023/07/24,00:50,0.525,0.804,0.492,0.961,0.712,0.323,0.567,0.534,��,4.2,��
2023/07/24,01:00,0.526,0.803,0.491,0.963,0.712,0.324,0.567,0.533,��,4.7,��
2023/07/24,01:10,0.527,0.807,0.491,0.961,0.713,0.322,0.568,0.534,��,5.2,��
2023/07/24,01:20,0.525,0.804,0.493,0.962,0.713,0.322,0.568,0.535,��,4.8,��
2023/07/24,01:30,0.525,0.803,0.492,0.963,0.713,0.324,0.567,0.534,��,4.6,��
2023/07/24,01:40,0.527,0.806,0.492,0.960,0.711,0.323,0.566,0.533,��,4.1,��
2023/07/24,01:50,0.526,0.805,0.490,0.961,0.714,0.323,0.567,0.533,��,3.6,��
2023/07/24,02:00,0.527,0.804,0.493,0.961,0.713,0.322,0.566,0.533,��,3.3,��
2023/07/24,02:10,0.526,0.803,0.493,0.960,0.713,0.324,0.567,0.534,��,3.0,��
2023/07/24,02:20,0.527,0.805,0.492,0.963,0.714,0.322,0.567,0.533,��,2.6,��
2023/07/24,02:30,0.528,0.804,0.494,0.962,0.713,0.322,0.567,0.533,��,2.2,��
2023/07/24,02:40,0.528,0.804,0.493,0.961,0.713,0.323,0.567,0.535,��,2.3,��
2023/07/24,02:50,0.528,0.806,0.492,0.962,0.714,0.323,0.567,0.534,��,1.7,��
2023/07/24,03:00,0.528,0.804,0.491,0.965,0.713,0.325,0.569,0.533,��쓌,1.4,��
2023/07/24,03:10,0.527,0.804,0.490,0.962,0.712,0.324,0.567,0.533,�쓌,0.6,��
2023/07/24,03:20,0.528,0.805,0.493,0.962,0.714,0.324,0.567,0.534,-,CALM,��
2023/07/24,03:30,0.528,0.807,0.491,0.963,0.713,0.325,0.569,0.533,��,0.6,��
2023/07/24,03:40,0.528,0.805,0.494,0.964,0.714,0.325,0.568,0.534,�k��,0.6,��
2023/07/24,03:50,0.528,0.805,0.494,0.965,0.714,0.325,0.567,0.535,�k,0.8,��
2023/07/24,04:00,0.528,0.808,0.494,0.963,0.713,0.325,0.568,0.535,�k�k��,0.6,��
2023/07/24,04:10,0.528,0.806,0.492,0.964,0.715,0.324,0.568,0.535,-,CALM,��
2023/07/24,04:20,0.529,0.805,0.493,0.963,0.713,0.325,0.569,0.533,�k,0.8,��
2023/07/24,04:30,0.527,0.805,0.493,0.965,0.715,0.326,0.569,0.535,�k,0.6,��
2023/07/24,04:40,0.529,0.806,0.493,0.963,0.715,0.325,0.569,0.535,���k��,1.5,��
2023/07/24,04:50,0.528,0.806,0.492,0.964,0.713,0.325,0.570,0.535,�k��,2.3,��
2023/07/24,05:00,0.528,0.804,0.492,0.961,0.715,0.323,0.569,0.535,�k��,1.9,��
2023/07/24,05:10,0.528,0.804,0.493,0.963,0.714,0.325,0.568,0.534,�k��,2.0,��
2023/07/24,05:20,0.526,0.803,0.491,0.963,0.714,0.324,0.568,0.534,�k��,1.5,��
2023/07/24,05:30,0.528,0.805,0.492,0.962,0.712,0.324,0.569,0.533,�k��,1.5,��
2023/07/24,05:40,0.527,0.805,0.492,0.962,0.712,0.323,0.568,0.534,�k��,1.4,��
2023/07/24,05:50,0.527,0.805,0.491,0.961,0.714,0.325,0.568,0.534,�k��,2.6,��
2023/07/24,06:00,0.526,0.806,0.491,0.961,0.713,0.323,0.570,0.533,�k��,2.5,��
2023/07/24,06:10,0.528,0.804,0.490,0.963,0.712,0.322,0.569,0.535,�k��,1.9,��
2023/07/24,06:20,0.528,0.805,0.492,0.962,0.713,0.324,0.570,0.535,�k��,1.5,��
2023/07/24,06:30,0.527,0.804,0.490,0.961,0.712,0.323,0.570,0.534,�k��,1.5,��
2023/07/24,06:40,0.526,0.804,0.493,0.961,0.712,0.323,0.569,0.534,�k�k��,1.5,��
2023/07/24,06:50,0.527,0.802,0.490,0.961,0.713,0.325,0.570,0.533,�k�k��,0.9,��
2023/07/24,07:00,0.527,0.803,0.490,0.961,0.710,0.324,0.570,0.535,���k��,0.8,��
2023/07/24,07:10,0.525,0.804,0.492,0.961,0.714,0.324,0.571,0.534,-,CALM,��
2023/07/24,07:20,0.526,0.804,0.493,0.961,0.711,0.325,0.570,0.534,-,CALM,��
2023/07/24,07:30,0.528,0.804,0.492,0.962,0.713,0.324,0.572,0.534,��,0.6,��
2023/07/24,07:40,0.528,0.805,0.492,0.962,0.713,0.324,0.571,0.535,���k��,1.2,��
2023/07/24,07:50,0.528,0.805,0.493,0.962,0.713,0.324,0.569,0.536,���쓌,1.2,��
2023/07/24,08:00,0.527,0.804,0.493,0.964,0.711,0.323,0.571,0.535,�쓌,1.2,��
2023/07/24,08:10,0.528,0.805,0.490,0.960,0.712,0.324,0.572,0.535,�쓌,1.2,��
2023/07/24,08:20,0.526,0.804,0.492,0.960,0.712,0.323,0.570,0.533,�쓌,1.2,��
2023/07/24,08:30,0.527,0.803,0.492,0.961,0.712,0.322,0.568,0.533,���쓌,1.4,��
2023/07/24,08:40,0.527,0.802,0.491,0.962,0.713,0.322,0.568,0.534,�쓌,2.0,��
2023/07/24,08:50,0.527,0.804,0.491,0.961,0.713,0.322,0.571,0.533,�쓌,1.9,��
2023/07/24,09:00,0.526,0.802,0.490,0.962,0.712,0.323,0.570,0.533,�쓌,2.0,��
2023/07/24,09:10,0.527,0.803,0.491,0.962,0.712,0.323,0.571,0.533,���쓌,1.7,��
2023/07/24,09:20,0.528,0.803,0.489,0.961,0.712,0.323,0.570,0.533,���쓌,1.7,��
2023/07/24,09:30,0.527,0.803,0.489,0.962,0.707,0.321,0.571,0.533,�쓌,1.7,��
2023/07/24,09:40,0.527,0.804,0.491,0.961,0.710,0.323,0.570,0.532,�쓌,2.3,��
2023/07/24,09:50,0.528,0.805,0.491,0.962,0.712,0.321,0.572,0.533,�쓌,3.8,��
2023/07/24,10:00,0.529,0.803,0.492,0.961,0.711,0.324,0.570,0.533,��쓌,3.6,��
2023/07/24,10:10,0.531,0.804,0.491,0.961,0.713,0.324,0.570,0.533,��쓌,5.1,��
2023/07/24,10:20,0.528,0.803,0.490,0.962,0.714,0.324,0.571,0.535,��쓌,6.0,��
2023/07/24,10:30,0.529,0.804,0.489,0.961,0.713,0.322,0.570,0.533,��쓌,6.3,��
2023/07/24,10:40,0.531,0.802,0.490,0.962,0.713,0.322,0.569,0.534,��쓌,5.9,��
2023/07/24,10:50,0.528,0.805,0.489,0.962,0.714,0.321,0.571,0.533,��쓌,5.2,��
2023/07/24,11:00,0.530,0.804,0.490,0.964,0.715,0.323,0.569,0.534,��쓌,5.8,��
2023/07/24,11:10,0.529,0.804,0.491,0.962,0.713,0.321,0.571,0.532,��쓌,7.2,��
2023/07/24,11:20,0.532,0.802,0.492,0.961,0.715,0.323,0.571,0.531,��쓌,7.2,��
2023/07/24,11:30,0.528,0.803,0.489,0.960,0.714,0.323,0.571,0.534,��쓌,7.5,��
2023/07/24,11:40,0.529,0.805,0.492,0.959,0.715,0.323,0.571,0.534,��쓌,7.3,��
2023/07/24,11:50,0.530,0.806,0.491,0.960,0.717,0.324,0.570,0.534,��쓌,7.8,��
2023/07/24,12:00,0.531,0.809,0.491,0.962,0.714,0.323,0.571,0.534,��쓌,8.0,��
2023/07/24,12:10,0.531,0.806,0.492,0.962,0.715,0.322,0.570,0.534,��쓌,7.4,��
2023/07/24,12:20,0.530,0.809,0.491,0.963,0.716,0.323,0.569,0.534,��쓌,7.6,��
2023/07/24,12:30,0.531,0.809,0.491,0.960,0.715,0.322,0.568,0.534,��쓌,8.5,��
2023/07/24,12:40,0.531,0.806,0.492,0.961,0.717,0.324,0.570,0.533,��쓌,7.5,��
2023/07/24,12:50,0.531,0.810,0.492,0.961,0.714,0.323,0.569,0.534,��쓌,8.0,��
2023/07/24,13:00,0.531,0.809,0.491,0.963,0.718,0.324,0.569,0.533,��쓌,7.7,��
2023/07/24,13:10,0.529,0.808,0.492,0.964,0.718,0.323,0.569,0.534,��쓌,10.0,��
2023/07/24,13:20,0.530,0.809,0.490,0.962,0.717,0.323,0.569,0.535,��쓌,10.2,��
2023/07/24,13:30,0.531,0.807,0.490,0.963,0.717,0.323,0.569,0.535,��쓌,8.7,��
2023/07/24,13:40,0.531,0.810,0.492,0.961,0.716,0.323,0.569,0.534,��쓌,9.4,��
2023/07/24,13:50,0.529,0.807,0.491,0.963,0.717,0.323,0.569,0.534,��쓌,7.5,��
2023/07/24,14:00,0.530,0.805,0.490,0.963,0.718,0.322,0.568,0.534,��쓌,8.4,��
2023/07/24,14:10,0.531,0.807,0.492,0.963,0.717,0.323,0.568,0.534,��쓌,8.2,��
2023/07/24,14:20,0.530,0.808,0.491,0.963,0.716,0.324,0.568,0.536,��쓌,8.9,��
2023/07/24,14:30,0.532,0.809,0.491,0.962,0.718,0.323,0.568,0.535,��쓌,8.4,��
2023/07/24,14:40,0.531,0.808,0.490,0.964,0.718,0.324,0.569,0.536,��쓌,7.7,��
2023/07/24,14:50,0.530,0.806,0.493,0.965,0.720,0.323,0.569,0.535,��쓌,8.3,��
2023/07/24,15:00,0.531,0.808,0.491,0.966,0.718,0.323,0.569,0.535,��쓌,8.4,��
2023/07/24,15:10,0.531,0.806,0.490,0.965,0.717,0.323,0.570,0.534,��,7.7,��
2023/07/24,15:20,0.531,0.807,0.491,0.967,0.718,0.322,0.572,0.535,��,6.5,��
2023/07/24,15:30,0.530,0.809,0.490,0.965,0.719,0.323,0.570,0.537,��,7.4,��
2023/07/24,15:40,0.532,0.808,0.491,0.966,0.720,0.324,0.571,0.535,��,6.4,��
2023/07/24,15:50,0.530,0.808,0.491,0.965,0.719,0.323,0.570,0.535,��,5.5,��
2023/07/24,16:00,0.530,0.809,0.493,0.965,0.719,0.323,0.569,0.535,��,5.4,��
2023/07/24,16:10,0.532,0.808,0.495,0.966,0.718,0.323,0.571,0.535,��쓌,6.4,��
2023/07/24,16:20,0.530,0.807,0.492,0.967,0.720,0.322,0.570,0.534,��쓌,5.3,��
2023/07/24,16:30,0.533,0.810,0.493,0.966,0.720,0.323,0.570,0.534,��쓌,6.9,��
2023/07/24,16:40,0.531,0.809,0.492,0.966,0.720,0.323,0.572,0.534,��,7.2,��
2023/07/24,16:50,0.532,0.809,0.491,0.965,0.718,0.324,0.570,0.535,��,5.5,��
2023/07/24,17:00,0.532,0.808,0.491,0.970,0.720,0.324,0.569,0.534,��,6.9,��
2023/07/24,17:10,0.532,0.809,0.492,0.969,0.719,0.323,0.569,0.532,��,5.5,��
2023/07/24,17:20,0.530,0.810,0.492,0.968,0.720,0.324,0.571,0.534,��,5.4,��
2023/07/24,17:30,0.531,0.809,0.491,0.969,0.721,0.325,0.569,0.534,��,6.3,��
2023/07/24,17:40,0.530,0.809,0.493,0.968,0.719,0.324,0.568,0.535,��,5.9,��
2023/07/24,17:50,0.533,0.811,0.491,0.969,0.720,0.324,0.570,0.534,��,5.8,��
2023/07/24,18:00,0.532,0.810,0.491,0.967,0.718,0.323,0.569,0.534,��,5.8,��
2023/07/24,18:10,0.531,0.809,0.492,0.969,0.718,0.323,0.569,0.534,��,5.7,��
2023/07/24,18:20,0.531,0.811,0.492,0.969,0.720,0.323,0.568,0.534,��,5.0,��
2023/07/24,18:30,0.530,0.809,0.490,0.966,0.719,0.324,0.569,0.534,��,5.4,��
2023/07/24,18:40,0.531,0.810,0.492,0.967,0.720,0.323,0.569,0.535,��,5.2,��
2023/07/24,18:50,0.532,0.810,0.490,0.970,0.719,0.325,0.568,0.536,��,5.2,��
2023/07/24,19:00,0.533,0.812,0.492,0.969,0.721,0.324,0.569,0.535,��,4.6,��
2023/07/24,19:10,0.532,0.811,0.492,0.969,0.720,0.324,0.570,0.534,��쐼,5.1,��
2023/07/24,19:20,0.533,0.812,0.493,0.969,0.722,0.323,0.567,0.534,��,5.4,��
2023/07/24,19:30,0.533,0.812,0.493,0.968,0.721,0.324,0.570,0.534,��,4.5,��
2023/07/24,19:40,0.532,0.809,0.492,0.968,0.721,0.326,0.570,0.536,��,4.6,��
2023/07/24,19:50,0.533,0.813,0.493,0.966,0.721,0.324,0.568,0.534,��,4.8,��
2023/07/24,20:00,0.532,0.809,0.494,0.970,0.720,0.325,0.569,0.535,��,4.2,��
2023/07/24,20:10,0.532,0.812,0.494,0.967,0.720,0.325,0.568,0.534,��,4.3,��
2023/07/24,20:20,0.532,0.813,0.494,0.968,0.720,0.325,0.569,0.535,��,4.4,��
2023/07/24,20:30,0.533,0.813,0.495,0.968,0.720,0.325,0.568,0.534,��,4.4,��
2023/07/24,20:40,0.532,0.810,0.495,0.969,0.721,0.325,0.569,0.535,��,3.7,��
2023/07/24,20:50,0.533,0.811,0.494,0.971,0.721,0.326,0.568,0.534,��,3.9,��
2023/07/24,21:00,0.533,0.813,0.494,0.970,0.720,0.325,0.570,0.537,��,4.1,��
2023/07/24,21:10,0.533,0.810,0.493,0.971,0.721,0.326,0.569,0.535,��,4.3,��
2023/07/24,21:20,0.532,0.812,0.493,0.972,0.721,0.325,0.569,0.536,��,4.3,��
2023/07/24,21:30,0.534,0.812,0.495,0.970,0.722,0.326,0.570,0.535,��쐼,4.1,��
2023/07/24,21:40,0.534,0.812,0.494,0.971,0.719,0.326,0.571,0.536,��쐼,3.5,��
2023/07/24,21:50,0.535,0.812,0.494,0.968,0.720,0.326,0.569,0.536,��쐼,3.5,��
2023/07/24,22:00,0.535,0.812,0.493,0.970,0.722,0.326,0.571,0.536,��쐼,2.9,��
2023/07/24,22:10,0.535,0.813,0.494,0.971,0.722,0.326,0.569,0.536,��쐼,1.7,��
2023/07/24,22:20,0.535,0.813,0.494,0.974,0.721,0.327,0.570,0.535,��,1.5,��
2023/07/24,22:30,0.532,0.811,0.495,0.970,0.722,0.326,0.569,0.536,-,CALM,��
2023/07/24,22:40,0.535,0.812,0.495,0.972,0.722,0.326,0.571,0.537,-,CALM,��
2023/07/24,22:50,0.535,0.815,0.496,0.972,0.721,0.325,0.572,0.537,���k��,0.8,��
2023/07/24,23:00,0.536,0.813,0.496,0.971,0.721,0.325,0.570,0.537,�k��,1.4,��
2023/07/24,23:10,0.534,0.812,0.495,0.971,0.722,0.326,0.571,0.537,�k�k��,0.9,��
2023/07/24,23:20,0.534,0.814,0.495,0.970,0.723,0.325,0.572,0.536,�k,0.6,��
2023/07/24,23:30,0.535,0.815,0.494,0.973,0.722,0.326,0.569,0.536,�k��,0.6,��
2023/07/24,23:40,0.534,0.813,0.496,0.971,0.721,0.328,0.571,0.537,-,CALM,��
2023/07/24,23:50,0.534,0.813,0.495,0.971,0.723,0.326,0.571,0.537,���쓌,0.9,��
